STARLINK-2190, 48564

Orbit data source: Space-Track

STARLINK-2190, 48564 is a payload satellite owned by SpaceX/Seattle (US) in LEO that was launched on Sat, 15 May 2021 UTC via an FALCON 9 launch vehicle from the Air Force Eastern Test Range (AFETR). Payload-class satellites include a variety of spacecraft equipped with specific instruments for various scientific and technological missions. These include communications satellites like Starlink; space stations such as the ISS; scientific satellites like the Hubble; Earth observation satellites from companies like Planet Labs, Umbra, and HawkEye 360; GPS; miniature CubeSats for education and research; and military/defense satellites.

Loading next visibility...
Identifier
48564, 2021-041M
Orbit
LEO
Country
Flag of USUS
Related business
Manufacturer
SpaceX/Seattle
Mission
Operational Commercial Communications
Bus & Motor
STARLINK, Unknown motor
Mass
260 kg wet, ~248 kg dry
Launch date (UTC)
2021-05-15 (5 years ago)
Launch vehicle
FALCON 9
Launch site
Air Force Eastern Test Range (AFETR)
Object type
Payload
Rocket body
Debris
Shape & HBR
Box + 1 Pan, 10.1 m
Radar Cross Section
13.562 m², Large (>1 m²)

Expand to show TLE details & history
Last TLE update: 3 days ago

TLE from 3 days ago
0 STARLINK-2190
1 48564U 21041M   26170.93918677 -.00000581  00000-0 -69601-5 0  9994
2 48564  53.1584  11.0230 0000931  66.5960 293.5139 15.31702632280942
Epoch: 2026-06-19T22:32Z
TLE epoch observation values (Epoch: 2026-06-19T22:32:25.736Z)
Latitude
-0.00006°
Longitude
124.75475°
Altitude
471.378 km
Speed
7.632 km/s
True Right ascension
00h 44m 05s
True Declination
0° 00' 00"
Sunlit
Object was in daylight at epoch
Visualization orbit readout
Latitude
Unknown
Longitude
Unknown
Altitude
Unknown
Speed
Unknown
Apparent Right ascension
Unknown
Apparent Declination
Unknown
Sunlit
N/A
Visualization observer readout
Local Sidereal Time
21:37:18
Azimuth
Unknown
Elevation
Unknown
Doppler factor
Unknown
Orbital elements
Apogee altitude
471.627 km
Perigee altitude
470.351 km
Semi-major axis
6,849.126 km
Eccentricity
0.00009
Inclination
53.1584°
RAAN
11.023°
Arg. of periapsis
66.596°
True anomaly
293.50412°
Mean anomaly
293.5139°
Eccentric anomaly
293.50901°
Mean motion
3.82904 °/min
Orbital period
94.02 mins
BSTAR
-0.0000069601
Loading maneuver chart data...
Computing Atmospheric mass density...

Documentation

Showing up to 5 results
|